IDEFIX & ARIANE 42P R/B

Last updated on Thu Nov 21 2024 00:02:12 GMT+0000 (Coordinated Universal Time)

1 27422U 02021B 24325.29299950 .00000618 00000+0 25386-3 0 9994 2 27422 98.5421 259.9673 0012487 139.4951 220.7163 14.30481494176185
UTC large
Height (km)
Speed (km/s)
/
Latitude / Longitude
Inclination (degrees)
Orbital Period (minutes)
Azimuth
Elevation
Range (km)
Doppler Factor

Next 0 passes for location: London (51.5072 / 0.1276)

Sorry there are no passes over London.